This demonstration page uses our WeatherBlox Daily Observations layout. Learn more.

Left ArrowRight Arrow

Hourly Observations for January 1, 2015

Temp ( °F °C ) Dew Point ( °F °C ) Humidity (%) Winds ( mph kmh ) Pressure ( in mb ) Visibility ( mi km ) Precip ( " mm )
12:15 am 00:15 Clear 19 -7 1 -17 45 45 SW 12 19 30.36 1028 10 16.0934 N/A
12:35 am 00:35 Clear 19 -7 1 -17 45 45 WSW 13 20 30.33 1027 10 16.0934 N/A
12:55 am 00:55 Clear 19 -7 1 -17 45 45 WSW 16 26 30.33 1027 10 16.0934 N/A
1:15 am 01:15 Clear 19 -7 1 -17 45 45 WSW 13 20 30.33 1027 10 16.0934 N/A
1:36 am 01:36 Clear 19 -7 1 -17 45 45 WSW 14 22 30.3 1026 10 16.0934 N/A
1:55 am 01:55 Clear 19 -7 1 -17 45 45 WSW 13 20 30.3 1026 10 16.0934 N/A
2:15 am 02:15 Clear 19 -7 1 -17 45 45 WSW 16 26 30.3 1026 10 16.0934 N/A
2:35 am 02:35 Clear 19 -7 1 -17 45 45 WSW 14 22 30.3 1026 10 16.0934 N/A
2:55 am 02:55 Clear 19 -7 3 -16 49 49 SW 14 22 30.3 1026 10 16.0934 N/A
3:15 am 03:15 Clear 21 -6 3 -16 45 45 SW 13 20 30.3 1026 10 16.0934 N/A
3:35 am 03:35 Clear 19 -7 3 -16 49 49 SW 12 19 30.27 1025 10 16.0934 N/A
3:55 am 03:55 Clear 19 -7 3 -16 49 49 SW 12 19 30.27 1025 10 16.0934 N/A
4:15 am 04:15 Clear 19 -7 3 -16 49 49 SW 10 17 30.27 1025 10 16.0934 N/A
4:35 am 04:35 Clear 19 -7 3 -16 49 49 SW 10 17 30.27 1025 10 16.0934 N/A
4:55 am 04:55 Clear 19 -7 3 -16 49 49 SW 12 19 30.27 1025 10 16.0934 N/A
5:15 am 05:15 Clear 19 -7 3 -16 49 49 SW 10 17 30.27 1025 10 16.0934 N/A
5:35 am 05:35 Clear 21 -6 5 -15 49 49 SW 12 19 30.27 1025 10 16.0934 N/A
5:55 am 05:55 Clear 21 -6 5 -15 49 49 SW 12 19 30.27 1025 10 16.0934 N/A
6:15 am 06:15 Clear 19 -7 5 -15 53 53 SW 10 17 30.27 1025 10 16.0934 N/A
6:35 am 06:35 Clear 19 -7 5 -15 53 53 SW 13 20 30.27 1025 10 16.0934 N/A
6:55 am 06:55 Clear 19 -7 5 -15 53 53 WSW 10 17 30.27 1025 10 16.0934 N/A
7:15 am 07:15 Clear 19 -7 5 -15 53 53 SW 9 15 30.27 1025 10 16.0934 N/A
7:35 am 07:35 Clear 19 -7 5 -15 53 53 SW 9 15 30.27 1025 10 16.0934 N/A
7:55 am 07:55 Clear 19 -7 5 -15 53 53 SW 10 17 30.27 1025 10 16.0934 N/A
8:15 am 08:15 Sunny 19 -7 5 -15 53 53 SW 9 15 30.27 1025 10 16.0934 N/A
8:35 am 08:35 Sunny 19 -7 5 -15 53 53 SW 9 15 30.27 1025 10 16.0934 N/A
8:55 am 08:55 Sunny 21 -6 7 -14 54 54 SW 12 19 30.27 1025 10 16.0934 N/A
9:15 am 09:15 Sunny 21 -6 7 -14 54 54 SW 13 20 30.27 1025 10 16.0934 N/A
9:35 am 09:35 Sunny 23 -5 7 -14 50 50 SW 15 24 30.27 1025 10 16.0934 N/A
9:56 am 09:56 Sunny 23 -5 7 -14 50 50 SW 14 22 30.27 1025 10 16.0934 N/A
10:15 am 10:15 Sunny 25 -4 7 -14 46 46 WSW 13 20 30.27 1025 10 16.0934 N/A
10:35 am 10:35 Sunny 25 -4 5 -15 42 42 SW 16 26 30.27 1025 10 16.0934 N/A
10:55 am 10:55 Sunny 27 -3 5 -15 39 39 SW 17 28 30.24 1024 10 16.0934 N/A
11:15 am 11:15 Sunny 27 -3 5 -15 39 39 SW 17 28 30.24 1024 10 16.0934 N/A
11:36 am 11:36 Sunny 28 -2 7 -14 40 40 SW 17 28 30.21 1023 10 16.0934 N/A
11:55 am 11:55 Sunny 30 -1 7 -14 37 37 WSW 17 28 30.21 1023 10 16.0934 N/A
12:15 pm 12:15 Sunny 30 -1 7 -14 37 37 SW 16 26 30.18 1022 10 16.0934 N/A
12:35 pm 12:35 Sunny 32 0 7 -14 34 34 WSW 17 28 30.18 1022 10 16.0934 N/A
12:55 pm 12:55 Sunny 32 0 7 -14 34 34 WSW 21 33 30.18 1022 10 16.0934 N/A
1:15 pm 13:15 Sunny 32 0 7 -14 34 34 WSW 17 28 30.15 1021 10 16.0934 N/A
1:35 pm 13:35 Sunny 34 1 5 -15 29 29 WSW 22 35 30.15 1021 10 16.0934 N/A
1:55 pm 13:55 Sunny 34 1 5 -15 29 29 WSW 22 35 30.15 1021 10 16.0934 N/A
2:16 pm 14:16 Sunny 34 1 5 -15 29 29 WSW 18 30 30.15 1021 10 16.0934 N/A
2:35 pm 14:35 Sunny 34 1 7 -14 32 32 WSW 17 28 30.12 1020 10 16.0934 N/A
2:55 pm 14:55 Sunny 36 2 5 -15 27 27 WSW 20 31 30.12 1020 10 16.0934 N/A
3:15 pm 15:15 Sunny 34 1 5 -15 29 29 WSW 16 26 30.12 1020 10 16.0934 N/A
3:35 pm 15:35 Sunny 34 1 5 -15 29 29 WSW 18 30 30.15 1021 10 16.0934 N/A
3:55 pm 15:55 Sunny 34 1 7 -14 32 32 WSW 17 28 30.15 1021 10 16.0934 N/A
4:15 pm 16:15 Sunny 34 1 7 -14 32 32 WSW 20 31 30.15 1021 10 16.0934 N/A
4:36 pm 16:36 Sunny 34 1 9 -13 35 35 WSW 20 31 30.15 1021 10 16.0934 N/A
4:55 pm 16:55 Sunny 34 1 9 -13 35 35 WSW 18 30 30.18 1022 10 16.0934 N/A
5:15 pm 17:15 Sunny 32 0 9 -13 37 37 WSW 16 26 30.15 1021 10 16.0934 N/A
5:35 pm 17:35 Clear 32 0 9 -13 37 37 WSW 18 30 30.15 1021 10 16.0934 N/A
5:55 pm 17:55 Clear 32 0 9 -13 37 37 WSW 15 24 30.18 1022 10 16.0934 N/A
6:16 pm 18:16 Clear 32 0 10 -12 40 40 WSW 13 20 30.18 1022 10 16.0934 N/A
6:35 pm 18:35 Clear 32 0 10 -12 40 40 WSW 13 20 30.21 1023 10 16.0934 N/A
6:55 pm 18:55 Clear 32 0 10 -12 40 40 WSW 12 19 30.21 1023 10 16.0934 N/A
7:16 pm 19:16 Clear 30 -1 10 -12 43 43 WSW 12 19 30.21 1023 10 16.0934 N/A
7:35 pm 19:35 Clear 30 -1 10 -12 43 43 WSW 14 22 30.21 1023 10 16.0934 N/A
7:55 pm 19:55 Clear 30 -1 12 -11 47 47 WSW 13 20 30.24 1024 10 16.0934 N/A
8:15 pm 20:15 Clear 30 -1 12 -11 47 47 WSW 13 20 30.21 1023 10 16.0934 N/A
8:35 pm 20:35 Clear 30 -1 12 -11 47 47 WSW 10 17 30.21 1023 10 16.0934 N/A
8:55 pm 20:55 Clear 30 -1 12 -11 47 47 W 10 17 30.21 1023 10 16.0934 N/A
9:15 pm 21:15 Clear 30 -1 12 -11 47 47 WSW 9 15 30.24 1024 10 16.0934 N/A
9:35 pm 21:35 Clear 30 -1 12 -11 47 47 WSW 12 19 30.24 1024 10 16.0934 N/A
9:55 pm 21:55 Clear 30 -1 12 -11 47 47 WSW 10 17 30.24 1024 10 16.0934 N/A
10:15 pm 22:15 Clear 30 -1 12 -11 47 47 WSW 14 22 30.24 1024 10 16.0934 N/A
10:35 pm 22:35 Clear 30 -1 12 -11 47 47 WSW 10 17 30.24 1024 10 16.0934 N/A
10:55 pm 22:55 Clear 30 -1 12 -11 47 47 WSW 12 19 30.24 1024 10 16.0934 N/A
11:15 pm 23:15 Clear 30 -1 12 -11 47 47 WSW 10 17 30.24 1024 10 16.0934 N/A
11:36 pm 23:36 Clear 30 -1 12 -11 47 47 WSW 12 19 30.24 1024 10 16.0934 N/A
11:55 pm 23:55 Clear 30 -1 12 -11 47 47 WSW 12 19 30.24 1024 10 16.0934 N/A

Powered by AerisWeather